Visibility
15.0 15.0 15.0 15.0 15.0 15.0 15.0 15.0 15.0 15.0 15.0 15.0 15.0 15.0 15.0 15.0 15.0 15.0 15.0 15.0 15.0 15.0 15.0 15.0 15.0 15.0 10.0 15.0 14.3 15.0 15.0 15.0 15.0
15.0 15.0 15.0 15.0 15.0 15.0 15.0 15.0 15.0 15.0 15.0 15.0 15.0 15.0 15.0 15.0 15.0 15.0 15.0 15.0 15.0 15.0 15.0 15.0 15.0 15.0 15.0 15.0 15.0 7.4 15.0 15.0 15.0
15.0 15.0 15.0 15.0 15.0 15.0 15.0 15.0 15.0 15.0 15.0 15.0 15.0 15.0 15.0 15.0 15.0 15.0 15.0 15.0 15.0 15.0 15.0 15.0 15.0 15.0 15.0 15.0 15.0 15.0 15.0 15.0 15.0
15.0 15.0 15.0 15.0 15.0 15.0 15.0 15.0 15.0 15.0 15.0 15.0 15.0 15.0 15.0 15.0 15.0 15.0 15.0 15.0 15.0 15.0 15.0 15.0 15.0 15.0 15.0 15.0 15.0 15.0 7.6 7.2 15.0
15.0 15.0 15.0 15.0 14.9 15.0 15.0 15.0 15.0 15.0 15.0 15.0 15.0 15.0 15.0 15.0 15.0 15.0 15.0 15.0 15.0 15.0 15.0 15.0 15.0 15.0 15.0 15.0 15.0 15.0 15.0 15.0 15.0
15.0 15.0 15.0 15.0 15.0 15.0 15.0 15.0 15.0 15.0 15.0 15.0 15.0 15.0 15.0 15.0 15.0 15.0 15.0 15.0 15.0 15.0 15.0 15.0 15.0 15.0 15.0 15.0 15.0 15.0 15.0 14.7 5.0
15.0 15.0 15.0 15.0 15.0 15.0 15.0 15.0 15.0 15.0 15.0 15.0 15.0 15.0 15.0 15.0 15.0 15.0 15.0 15.0 15.0 15.0 15.0 15.0 15.0 15.0 15.0 15.0 15.0 15.0 15.0 15.0 3.2
15.0 15.0 15.0 15.0 15.0 15.0 15.0 15.0 15.0 15.0 15.0 15.0 15.0 15.0 15.0 15.0 15.0 15.0 15.0 15.0 15.0 15.0 15.0 15.0 15.0 15.0 15.0 15.0 15.0 15.0 15.0 15.0 14.6
0.1 0.1 0.1 14.7 15.0 15.0 15.0 15.0 15.0 15.0 15.0 15.0 15.0 15.0 15.0 15.0 15.0 15.0 15.0 14.8 14.8 15.0 15.0 14.8 15.0 15.0 15.0 15.0 15.0 15.0 3.0 0.2 15.0
0.1 0.1 0.1 0.0 0.0 0.1 11.0 15.0 10.3 15.0 15.0 15.0 15.0 15.0 15.0 15.0 10.4 15.0 15.0 7.2 4.9 4.0 11.7 5.7 4.7 11.9 15.0 15.0 15.0 15.0 15.0 15.0 15.0
6.2 0.1 0.1 0.1 0.1 0.1 0.1 12.4 15.0 15.0 15.0 15.0 15.0 15.0 15.0 9.8 15.0 4.4 11.8 12.9 3.5 2.9 7.5 3.3 4.6 15.0 15.0 15.0 15.0 12.6 15.0 15.0 15.0
12.4 2.4 0.6 0.3 0.7 0.2 0.2 0.2 13.3 15.0 15.0 15.0 15.0 14.4 13.2 15.0 15.0 15.0 12.6 12.2 9.0 1.6 0.7 0.2 1.1 14.0 15.0 15.0 2.3 4.6 6.3 0.2 15.0
15.0 15.0 15.0 2.1 15.0 15.0 1.7 0.1 0.1 0.1 15.0 15.0 12.6 8.6 15.0 15.0 15.0 13.8 7.4 14.8 1.1 0.2 0.3 0.1 0.2 0.1 1.0 14.3 2.6 4.2 0.4 0.1 15.0
15.0 15.0 15.0 15.0 15.0 5.4 0.2 4.3 0.7 0.1 0.1 0.0 0.1 15.0 15.0 15.0 15.0 15.0 11.5 0.3 0.3 0.1 0.1 0.1 0.1 0.1 0.7 13.6 5.0 15.0 3.2 0.1 11.7
15.0 15.0 15.0 15.0 14.0 15.0 15.0 15.0 4.6 0.1 0.1 0.1 1.1 3.2 0.1 0.1 0.1 0.1 0.1 0.1 0.1 0.2 0.9 0.6 2.1 7.0 6.9 6.8 15.0 12.2 5.6 0.1 0.3
15.0 15.0 15.0 15.0 15.0 15.0 15.0 15.0 15.0 0.1 0.1 0.7 0.5 0.2 0.1 0.1 0.2 0.2 0.1 0.1 0.1 0.1 7.6 13.2 1.6 15.0 14.0 11.4 15.0 15.0 15.0 15.0 14.9
15.0 15.0 15.0 15.0 15.0 15.0 15.0 15.0 15.0 5.3 15.0 15.0 15.0 0.4 0.2 10.0 0.3 0.4 10.7 0.6 2.9 0.1 0.1 2.6 15.0 15.0 14.2 14.7 9.0 7.8 15.0 15.0 7.0
15.0 15.0 15.0 15.0 15.0 15.0 15.0 15.0 15.0 15.0 15.0 15.0 15.0 15.0 15.0 11.3 3.0 1.3 0.1 0.1 0.1 0.1 0.1 0.1 0.4 0.9 11.3 14.6 14.6 3.3 15.0 15.0 11.9
15.0 15.0 15.0 15.0 15.0 15.0 15.0 15.0 15.0 15.0 15.0 15.0 15.0 15.0 15.0 15.0 12.8 15.0 15.0 12.9 12.8 11.2 9.7 4.4 10.5 3.3 11.9 11.2 15.0 10.1 2.1 15.0 14.6
15.0 15.0 15.0 15.0 15.0 15.0 15.0 15.0 15.0 15.0 15.0 15.0 15.0 15.0 15.0 15.0 15.0 15.0 15.0 15.0 15.0 15.0 15.0 15.0 15.0 14.8 12.2 15.0 7.5 15.0 15.0 15.0 15.0